Location: Milton Keynes
(52.0316°N, 0.7531°W)
Time: 23:12:26
(UTC+01:00)

Envisat - Pass Details

Date: 25 January 2019
Orbit: 764 x 766 km, 98.2° (Epoch: 19 April)

Event Time Altitude Azimuth Distance (km) Brightness Sun altitude
Rises 18:17:17 0° 156° (SSE) 3,220 6.1 -15.1°
Reaches altitude 10° 18:19:35 10° 155° (SSE) 2,299 5.3 -15.4°
Maximum altitude 18:24:37 72° 72° (ENE) 810 2.9 -16.2°
Drops below altitude 10° 18:29:42 10° 349° (N) 2,317 5.5 -17.0°
Sets 18:32:02 0° 347° (NNW) 3,248 6.3 -17.3°
